[[{"header":{"parameterUnit":"m.s-1","parameterCategory":1,"la1":30.2991,"la2":30.254,"lo1":-89.0895,"lo2":-89.0444,"dy":0.0017,"dx":0.0017,"nx":28,"ny":28,"refTime":"2025-11-26T03:00:00:Z","depth":0,"parameterNumber":2,"parameterNumberName":"U-component_of_WINDS"},"data":[0,0,0,0,0,0,0,0,0,0,0,0,0,0,0,0,0,0,0,0,0,0,0,0,0,0,0,0,0,0,0,0,0,0,0,0,0,0,0,0,0,0,0,0,0,0,0,0,0,0,0,0,0,0,0,0,0,0,-0.6349,-0.6349,0,-0.6348,-0.6348,-0.6348,-0.632,-0.6319,-0.6319,-0.6318,-0.6318,-0.6318,-0.6319,0,0,0,0,0,0,0,0,0,0,0,0,0,-0.6328,-0.6328,-0.6349,-0.6349,-0.6349,-0.6348,-0.6348,-0.6348,-0.632,-0.6319,-0.6319,-0.6318,-0.6318,-0.6318,-0.6319,0,0,0,0,0,0,0,0,0,0,0,0,0,-0.6333,-0.6328,-0.6349,-0.6335,-0.6334,-0.6348,-0.6348,-0.6348,-0.632,-0.6319,-0.6318,-0.6317,-0.6317,-0.6318,-0.6319,-0.6347,0,0,-0.6322,-0.6323,0,0,0,0,0,0,0,0,-0.6333,-0.6334,-0.6337,-0.6336,-0.6335,-0.6333,-0.634,-0.6347,-0.6321,-0.6326,-0.6318,-0.6317,-0.6324,-0.6324,-0.6326,-0.6347,-0.6347,-0.6322,-0.6323,-0.6323,-0.6324,0,0,0,0,0,0,0,-0.6332,-0.6334,-0.6348,-0.6337,-0.6336,-0.6329,-0.6328,-0.6341,-0.6331,-0.6325,-0.6323,-0.6323,-0.6323,-0.6325,-0.6326,-0.6347,-0.6322,-0.6323,-0.6324,-0.6324,-0.6389,-0.639,0,0,0,0,0,0,-0.6334,-0.6333,-0.6348,-0.6348,-0.6331,-0.633,-0.633,-0.6335,-0.633,-0.6329,-0.6324,-0.6322,-0.6324,-0.6325,-0.6326,-0.6358,-0.6323,-0.6324,-0.6325,-0.6388,-0.6389,-0.639,0,0,0,0,0,0,-0.6333,-0.6335,-0.6348,-0.634,-0.6341,-0.6332,-0.6337,-0.6335,-0.6338,-0.633,-0.6328,-0.6329,-0.6323,-0.6325,-0.6342,-0.6357,-0.6325,-0.6326,-0.6387,-0.6388,-0.639,-0.6422,0,0,0,0,0,0,-0.6333,-0.6335,-0.6346,-0.6341,-0.6342,-0.6364,-0.6338,-0.6336,-0.6339,-0.6336,-0.6333,-0.6332,-0.6323,-0.634,-0.6343,-0.6358,-0.6326,-0.6385,-0.6387,-0.6389,-0.6419,-0.6424,-0.6429,0,0,0,0,0,-0.6332,-0.6355,-0.6346,-0.6348,-0.6355,-0.6365,-0.6366,-0.6354,-0.6341,-0.6351,-0.6346,-0.6332,-0.6355,-0.6342,-0.6345,-0.6361,-0.6384,-0.6387,-0.6389,-0.6417,-0.6423,-0.6428,0,0,0,0,0,0,-0.6362,-0.6354,-0.6344,-0.6366,-0.6366,-0.636,-0.6373,-0.6361,-0.6366,-0.6363,-0.6349,-0.6348,-0.6368,-0.6366,-0.6352,-0.6387,-0.6367,-0.637,-0.6388,-0.6393,-0.6398,-0.6398,-0.6327,0,0,0,0,0,-0.6372,-0.638,-0.6373,-0.6393,-0.6393,-0.6383,-0.6387,-0.6378,-0.6378,-0.6378,-0.6374,-0.6375,-0.6382,-0.6388,-0.6394,-0.6418,-0.6417,-0.6431,-0.6435,-0.6439,-0.6442,-0.6455,-0.6461,-0.6399,-0.6399,-0.6399,0,0,-0.6391,-0.6387,-0.6394,-0.6398,-0.6398,-0.6407,-0.6383,-0.6395,-0.6402,-0.638,-0.6396,-0.6393,-0.6393,-0.6414,-0.6423,-0.6413,-0.6459,-0.6442,-0.6446,-0.6447,-0.6458,-0.6464,-0.647,-0.6401,-0.64,-0.64,0,0,-0.6431,-0.6429,-0.6445,-0.6444,-0.6443,-0.6436,-0.644,-0.6436,-0.6433,-0.6448,-0.6432,-0.644,-0.6453,-0.6454,-0.6456,-0.6495,-0.6483,-0.6497,-0.6522,-0.6535,-0.654,-0.6544,-0.6558,-0.6564,-0.65,-0.65,-0.65,0,-0.6455,-0.6469,-0.6455,-0.6467,-0.647,-0.645,-0.6466,-0.6467,-0.6468,-0.647,-0.6459,-0.6474,-0.6473,-0.6493,-0.6503,-0.6505,-0.6509,-0.6498,-0.654,-0.6544,-0.6548,-0.6562,-0.6567,-0.6502,-0.6502,-0.6502,-0.6502,0,-0.6498,-0.6508,-0.6521,-0.6523,-0.6527,-0.6541,-0.653,-0.6535,-0.6526,-0.652,-0.6536,-0.6533,-0.6539,-0.6543,-0.6534,-0.6562,-0.6556,-0.6542,-0.6523,-0.6556,-0.6569,-0.6574,-0.6505,-0.6504,-0.6504,-0.6503,0,0,-0.6558,-0.6551,-0.6556,-0.6556,-0.6553,-0.6561,-0.6574,-0.6579,-0.6584,-0.6585,-0.6596,-0.6607,-0.6595,-0.6597,-0.6588,-0.6599,-0.663,-0.6584,-0.6584,-0.6593,-0.6662,-0.6672,-0.6679,-0.6622,-0.6623,-0.6623,-0.6662,0,-0.6597,-0.662,-0.6607,-0.6632,-0.664,-0.6621,-0.6633,-0.6632,-0.6627,-0.6634,-0.6628,-0.6636,-0.6619,-0.662,-0.663,-0.6624,-0.6644,-0.6621,-0.6632,-0.6633,-0.6634,-0.6685,-0.6696,-0.6733,-0.6667,-0.6667,-0.6668,0,-0.6646,-0.6649,-0.6674,-0.6668,-0.6672,-0.6682,-0.6686,-0.6692,-0.6691,-0.6686,-0.6689,-0.6677,-0.6689,-0.6669,-0.6687,-0.6671,-0.6675,-0.6673,-0.6674,-0.6675,-0.6653,-0.6688,-0.6744,-0.675,-0.6676,-0.6675,-0.6674,0,-0.6688,-0.6698,-0.6714,-0.6715,-0.6709,-0.6717,-0.6715,-0.6712,-0.6716,-0.6719,-0.6721,-0.6725,-0.6728,-0.6732,-0.6721,-0.6707,-0.674,-0.6719,-0.6737,-0.6738,-0.6746,-0.6746,-0.6804,-0.6747,-0.6747,-0.6747,-0.6747,0,-0.6733,-0.6749,-0.6733,-0.6743,-0.676,-0.6746,-0.6763,-0.6759,-0.6757,-0.6766,-0.6749,-0.6758,-0.6744,-0.6751,-0.6743,-0.6759,-0.676,-0.6757,-0.6755,-0.6759,-0.6759,-0.6762,-0.6759,-0.6748,-0.6748,-0.6748,-0.6747,0,-0.6784,-0.6773,-0.6789,-0.6782,-0.6781,-0.6794,-0.6788,-0.6797,-0.679,-0.6801,-0.6803,-0.6793,-0.6801,-0.679,-0.6797,-0.6791,-0.6814,-0.6807,-0.6814,-0.6812,-0.6831,-0.683,-0.6894,-0.6902,-0.6839,-0.684,-0.684,0,-0.6814,-0.6825,-0.6819,-0.6824,-0.6823,-0.683,-0.6834,-0.682,-0.6824,-0.6823,-0.6832,-0.6838,-0.6843,-0.6856,-0.6849,-0.6854,-0.6848,-0.687,-0.6849,-0.6853,-0.6849,-0.6849,-0.685,-0.6875,-0.6876,-0.6876,-0.6877,0,-0.6868,-0.6862,-0.6867,-0.6871,-0.6875,-0.6877,-0.6878,-0.6882,-0.6868,-0.6873,-0.6881,-0.6884,-0.6891,-0.6897,-0.69,-0.6898,-0.6886,-0.6883,-0.6888,-0.6893,-0.6897,-0.6895,-0.6827,-0.6882,-0.6882,-0.6881,-0.6881,-0.6881,-0.691,-0.6919,-0.6916,-0.6922,-0.6921,-0.6922,-0.693,-0.6924,-0.693,-0.6934,-0.6925,-0.6935,-0.6933,-0.6936,-0.6935,-0.6943,-0.6933,-0.694,-0.6942,-0.6944,-0.6947,-0.6895,-0.6943,-0.6943,-0.6943,-0.6943,-0.6943,0,-0.6964,-0.6961,-0.6966,-0.6968,-0.6973,-0.6959,-0.6959,-0.6964,-0.6973,-0.6972,-0.6976,-0.6985,-0.6991,-0.6984,-0.6989,-0.6996,-0.699,-0.6998,-0.6998,-0.6998,-0.6955,-0.6951,-0.7003,-0.7003,-0.7003,-0.7003,-0.7003,-0.7003,-0.6993,-0.7008,-0.7002,-0.7016,-0.7013,-0.7022,-0.7023,-0.7024,-0.7023,-0.7033,-0.7038,-0.7033,-0.703,-0.7034,-0.7039,-0.7037,-0.704,-0.705,-0.7046,-0.7006,-0.7001,-0.6995,-0.6991,-0.7051,-0.7051,-0.7088,-0.7088,-0.7089]},{"header":{"parameterUnit":"m.s-1","parameterCategory":1,"la1":30.2991,"la2":30.254,"lo1":-89.0895,"lo2":-89.0444,"dy":0.0017,"dx":0.0017,"nx":28,"ny":28,"refTime":"2025-11-26T03:00:00:Z","depth":0,"parameterNumber":3,"parameterNumberName":"V-component_of_WINDS"},"data":[0,0,0,0,0,0,0,0,0,0,0,0,0,0,0,0,0,0,0,0,0,0,0,0,0,0,0,0,0,0,0,0,0,0,0,0,0,0,0,0,0,0,0,0,0,0,0,0,0,0,0,0,0,0,0,0,0,0,-5.3356,-5.3357,0,-5.3435,-5.3436,-5.3437,-5.3422,-5.3421,-5.342,-5.3418,-5.3494,-5.3497,-5.35,0,0,0,0,0,0,0,0,0,0,0,0,0,-5.3189,-5.3193,-5.3356,-5.3357,-5.3358,-5.3435,-5.3436,-5.3437,-5.3423,-5.3421,-5.3419,-5.3418,-5.3493,-5.3497,-5.3501,0,0,0,0,0,0,0,0,0,0,0,0,0,-5.3264,-5.3194,-5.3356,-5.3361,-5.3362,-5.3435,-5.3436,-5.3437,-5.3423,-5.3421,-5.3419,-5.3417,-5.3492,-5.3496,-5.3501,-5.3573,0,0,-5.3516,-5.3519,0,0,0,0,0,0,0,0,-5.326,-5.327,-5.3359,-5.336,-5.3362,-5.3417,-5.3405,-5.3483,-5.3424,-5.34,-5.3418,-5.3416,-5.347,-5.3476,-5.3495,-5.3577,-5.358,-5.3517,-5.352,-5.3522,-5.3523,0,0,0,0,0,0,0,-5.3255,-5.3267,-5.3387,-5.336,-5.3362,-5.3357,-5.3366,-5.342,-5.3445,-5.3402,-5.3401,-5.341,-5.347,-5.3491,-5.3497,-5.3581,-5.3517,-5.3521,-5.3524,-5.3526,-5.3727,-5.373,0,0,0,0,0,0,-5.3249,-5.3263,-5.3385,-5.339,-5.3305,-5.3362,-5.3371,-5.3401,-5.3445,-5.3449,-5.3412,-5.341,-5.3483,-5.3491,-5.35,-5.3588,-5.3522,-5.3527,-5.3529,-5.3725,-5.3728,-5.373,0,0,0,0,0,0,-5.3245,-5.326,-5.3382,-5.3326,-5.3341,-5.3367,-5.3401,-5.3404,-5.3425,-5.3453,-5.3457,-5.3429,-5.3482,-5.3493,-5.3556,-5.3591,-5.3529,-5.3533,-5.3722,-5.3726,-5.3729,-5.3766,0,0,0,0,0,0,-5.3241,-5.3259,-5.3287,-5.3327,-5.3344,-5.3438,-5.3403,-5.3407,-5.3434,-5.3431,-5.347,-5.3474,-5.3481,-5.3549,-5.3561,-5.3596,-5.3537,-5.3719,-5.3724,-5.3728,-5.3761,-5.377,-5.3777,0,0,0,0,0,-5.3235,-5.3293,-5.3289,-5.3304,-5.3381,-5.344,-5.345,-5.3459,-5.3437,-5.3465,-5.3483,-5.3473,-5.3585,-5.3555,-5.3569,-5.3606,-5.3717,-5.3723,-5.3728,-5.3758,-5.3768,-5.3777,0,0,0,0,0,0,-5.3254,-5.3298,-5.3294,-5.3367,-5.34,-5.3437,-5.3474,-5.3469,-5.3507,-5.3503,-5.3511,-5.3519,-5.3584,-5.3601,-5.3567,-5.3679,-5.3648,-5.3656,-5.3666,-5.3676,-5.3684,-5.3679,-5.3541,0,0,0,0,0,-5.3268,-5.3314,-5.3349,-5.341,-5.3427,-5.3448,-5.3473,-5.3478,-5.3511,-5.3525,-5.3547,-5.3579,-5.3622,-5.365,-5.369,-5.3764,-5.3772,-5.3796,-5.3804,-5.381,-5.3818,-5.3859,-5.387,-5.3748,-5.3748,-5.3748,0,0,-5.3295,-5.3324,-5.3352,-5.3414,-5.3441,-5.3487,-5.3459,-5.3509,-5.3543,-5.3532,-5.3594,-5.3612,-5.3648,-5.3717,-5.3748,-5.3733,-5.3853,-5.3817,-5.3822,-5.3826,-5.3866,-5.3877,-5.3887,-5.3752,-5.3751,-5.375,0,0,-5.3368,-5.3395,-5.345,-5.3477,-5.3518,-5.3532,-5.3545,-5.3583,-5.3596,-5.3658,-5.3651,-5.3691,-5.3764,-5.3791,-5.3814,-5.3899,-5.3891,-5.3912,-5.3953,-5.3993,-5.4003,-5.4012,-5.4043,-5.4054,-5.3919,-5.3919,-5.3919,0,-5.3396,-5.3468,-5.3478,-5.353,-5.3557,-5.3551,-5.3606,-5.3632,-5.3683,-5.3701,-5.3684,-5.3777,-5.3801,-5.3877,-5.3898,-5.3916,-5.3931,-5.3908,-5.4001,-5.401,-5.4018,-5.4048,-5.406,-5.3921,-5.3921,-5.3921,-5.3921,0,-5.3501,-5.355,-5.3589,-5.3642,-5.3674,-5.3726,-5.3744,-5.3774,-5.3776,-5.3791,-5.3856,-5.3884,-5.3931,-5.3949,-5.395,-5.4026,-5.4015,-5.4,-5.3968,-5.4032,-5.406,-5.4072,-5.3925,-5.3924,-5.3923,-5.3923,0,0,-5.3588,-5.3647,-5.3661,-5.3686,-5.3731,-5.3769,-5.3822,-5.387,-5.3896,-5.3932,-5.3976,-5.4039,-5.4026,-5.4052,-5.4055,-5.4091,-5.4158,-5.4071,-5.4072,-5.4087,-5.4244,-5.4256,-5.4269,-5.4153,-5.4155,-5.4157,-5.4241,0,-5.3667,-5.3762,-5.3774,-5.3858,-5.3904,-5.3899,-5.3945,-5.3977,-5.3993,-5.4034,-5.405,-5.4095,-5.4073,-5.4089,-5.4124,-5.4142,-5.419,-5.4136,-5.4193,-5.4195,-5.4186,-5.4284,-5.4297,-5.4375,-5.4252,-5.4254,-5.4255,0,-5.3771,-5.3813,-5.3902,-5.3943,-5.3963,-5.4004,-5.405,-5.4089,-5.4125,-5.4134,-5.4165,-5.4164,-5.4218,-5.4184,-5.4258,-5.4222,-5.4246,-5.4258,-5.4261,-5.4268,-5.423,-5.4294,-5.44,-5.4413,-5.4273,-5.4271,-5.427,0,-5.3828,-5.3905,-5.397,-5.3991,-5.4039,-5.4069,-5.409,-5.4124,-5.4153,-5.4192,-5.4211,-5.4255,-5.428,-5.4313,-5.4325,-5.4299,-5.4399,-5.4365,-5.4407,-5.4407,-5.4429,-5.4427,-5.4542,-5.4443,-5.4443,-5.4442,-5.4442,0,-5.3915,-5.397,-5.3996,-5.4036,-5.4098,-5.411,-5.417,-5.4189,-5.4221,-5.4263,-5.4261,-5.43,-5.4313,-5.4354,-5.4363,-5.4424,-5.4434,-5.4443,-5.4444,-5.4444,-5.4443,-5.446,-5.4455,-5.4445,-5.4445,-5.4444,-5.4444,0,-5.3988,-5.4008,-5.4078,-5.4119,-5.4131,-5.4175,-5.4209,-5.4247,-5.4263,-5.4317,-5.433,-5.4354,-5.4403,-5.4418,-5.4476,-5.4482,-5.4553,-5.455,-5.4542,-5.4542,-5.4584,-5.458,-5.4714,-5.4733,-5.462,-5.4621,-5.4622,0,-5.4043,-5.4086,-5.4133,-5.4163,-5.4186,-5.4233,-5.4263,-5.4276,-5.4307,-5.4353,-5.4385,-5.4434,-5.4474,-5.4552,-5.4574,-5.4619,-5.4617,-5.4661,-5.4623,-5.4622,-5.4619,-5.4617,-5.4621,-5.4668,-5.4669,-5.467,-5.4671,0,-5.4139,-5.4147,-5.4192,-5.424,-5.4277,-5.4315,-5.4352,-5.4376,-5.4394,-5.4429,-5.4481,-5.4512,-5.4573,-5.4621,-5.4667,-5.4687,-5.4683,-5.4683,-5.4695,-5.4695,-5.4689,-5.4694,-5.4562,-5.4679,-5.4679,-5.4678,-5.4677,-5.4677,-5.4205,-5.4244,-5.4284,-5.4334,-5.4364,-5.4398,-5.4437,-5.4458,-5.4502,-5.4554,-5.4559,-5.4615,-5.465,-5.4712,-5.4734,-5.4777,-5.4764,-5.4782,-5.4786,-5.4791,-5.4795,-5.4682,-5.4785,-5.4785,-5.4785,-5.4785,-5.4784,0,-5.4302,-5.4328,-5.4374,-5.4427,-5.4466,-5.446,-5.4501,-5.4534,-5.4584,-5.4618,-5.4659,-5.4718,-5.4766,-5.4792,-5.4839,-5.4869,-5.4867,-5.4881,-5.4879,-5.4884,-5.4803,-5.4788,-5.4881,-5.4881,-5.4881,-5.4881,-5.4881,-5.4881,-5.4357,-5.4423,-5.4436,-5.4516,-5.4541,-5.4597,-5.4621,-5.4653,-5.4681,-5.4749,-5.4789,-5.4807,-5.4838,-5.4888,-5.4931,-5.4937,-5.4955,-5.497,-5.4975,-5.4899,-5.4889,-5.488,-5.4866,-5.4974,-5.4974,-5.5053,-5.5053,-5.5054]}]]